[[{"header":{"parameterUnit":"m.s-1","parameterCategory":1,"la1":30.2991,"la2":30.254,"lo1":-89.0895,"lo2":-89.0444,"dy":0.0017,"dx":0.0017,"nx":28,"ny":28,"refTime":"2024-04-17T21:00:00:Z","depth":0,"parameterNumber":2,"parameterNumberName":"U-component_of_WINDS"},"data":[0,0,0,0,0,0,0,0,0,0,0,0,0,0,0,0,0,0,0,0,0,0,0,0,0,0,0,0,0,0,0,0,0,0,0,0,0,0,0,0,0,0,0,0,0,0,0,0,0,0,0,0,0,0,0,0,0,0,-1.0991,-1.099,0,-1.0887,-1.0886,-1.0885,-1.084,-1.084,-1.084,-1.084,-1.0732,-1.0729,-1.0726,0,0,0,0,0,0,0,0,0,0,0,0,0,-1.115,-1.1148,-1.0991,-1.099,-1.0989,-1.0887,-1.0886,-1.0884,-1.084,-1.084,-1.084,-1.084,-1.0733,-1.073,-1.0726,0,0,0,0,0,0,0,0,0,0,0,0,0,-1.1067,-1.1147,-1.0992,-1.0954,-1.095,-1.0888,-1.0886,-1.0884,-1.084,-1.084,-1.084,-1.084,-1.0735,-1.073,-1.0726,-1.0692,0,0,-1.0712,-1.071,0,0,0,0,0,0,0,0,-1.1072,-1.1062,-1.0961,-1.0957,-1.0952,-1.0877,-1.0902,-1.082,-1.084,-1.0881,-1.084,-1.084,-1.078,-1.0772,-1.0752,-1.0687,-1.0683,-1.0711,-1.0709,-1.0707,-1.0705,0,0,0,0,0,0,0,-1.1078,-1.1066,-1.095,-1.096,-1.0954,-1.0942,-1.0931,-1.0886,-1.0831,-1.0878,-1.0874,-1.0863,-1.0778,-1.0756,-1.0749,-1.0681,-1.0711,-1.0707,-1.0705,-1.0703,-1.0583,-1.0583,0,0,0,0,0,0,-1.109,-1.1071,-1.0953,-1.0947,-1.1014,-1.0939,-1.0926,-1.09,-1.0831,-1.0821,-1.0863,-1.0861,-1.0764,-1.0754,-1.0745,-1.0701,-1.0707,-1.0702,-1.07,-1.0584,-1.0583,-1.0583,0,0,0,0,0,0,-1.1094,-1.108,-1.0958,-1.1008,-1.0991,-1.0936,-1.0908,-1.0898,-1.0877,-1.0819,-1.0809,-1.0851,-1.0764,-1.0751,-1.0706,-1.0696,-1.07,-1.0696,-1.0584,-1.0584,-1.0583,-1.0613,0,0,0,0,0,0,-1.1098,-1.1081,-1.1069,-1.1008,-1.0989,-1.0921,-1.0907,-1.0896,-1.0869,-1.0866,-1.0806,-1.0796,-1.0763,-1.0713,-1.0701,-1.069,-1.0693,-1.0585,-1.0584,-1.0583,-1.0612,-1.0613,-1.0614,0,0,0,0,0,-1.1104,-1.1081,-1.1068,-1.1054,-1.0972,-1.092,-1.0909,-1.0872,-1.0869,-1.0855,-1.0818,-1.0798,-1.0699,-1.0708,-1.0695,-1.0683,-1.0585,-1.0584,-1.0583,-1.0612,-1.0613,-1.0614,0,0,0,0,0,0,-1.1142,-1.1072,-1.1057,-1.1014,-1.0973,-1.0913,-1.0894,-1.0874,-1.0833,-1.0832,-1.0787,-1.0774,-1.0732,-1.0703,-1.0714,-1.0646,-1.0641,-1.0637,-1.0667,-1.0667,-1.0668,-1.0676,-1.0689,0,0,0,0,0,-1.1145,-1.111,-1.1051,-1.1018,-1.0998,-1.095,-1.0926,-1.0901,-1.0857,-1.0839,-1.0799,-1.0757,-1.0716,-1.069,-1.065,-1.0608,-1.0594,-1.0593,-1.0594,-1.0594,-1.0591,-1.0566,-1.0565,-1.058,-1.058,-1.058,0,0,-1.1152,-1.1109,-1.1089,-1.1025,-1.099,-1.0954,-1.0936,-1.0898,-1.087,-1.0833,-1.0788,-1.0757,-1.0707,-1.0663,-1.0641,-1.0637,-1.0584,-1.0593,-1.0594,-1.0591,-1.0565,-1.0564,-1.0563,-1.0579,-1.0579,-1.0579,0,0,-1.1145,-1.1109,-1.1078,-1.1044,-1.0992,-1.096,-1.0952,-1.0894,-1.0872,-1.0826,-1.0797,-1.0763,-1.0695,-1.066,-1.0633,-1.0612,-1.0592,-1.0601,-1.0604,-1.058,-1.0579,-1.0578,-1.0569,-1.0567,-1.0598,-1.0598,-1.0598,0,-1.1159,-1.1103,-1.1064,-1.1028,-1.1,-1.0965,-1.0932,-1.0901,-1.0839,-1.082,-1.0816,-1.0728,-1.0692,-1.0639,-1.0634,-1.0614,-1.0603,-1.0607,-1.0582,-1.0581,-1.0579,-1.0571,-1.0568,-1.0599,-1.0599,-1.0599,-1.0599,0,-1.1123,-1.1085,-1.1066,-1.1006,-1.0976,-1.0942,-1.0897,-1.0871,-1.0849,-1.0817,-1.077,-1.0725,-1.0675,-1.066,-1.0638,-1.0604,-1.0602,-1.0591,-1.0585,-1.058,-1.0571,-1.0567,-1.0601,-1.0601,-1.06,-1.06,0,0,-1.1137,-1.1056,-1.1049,-1.1022,-1.0962,-1.0931,-1.0895,-1.0846,-1.0824,-1.0782,-1.075,-1.0693,-1.0682,-1.0651,-1.0625,-1.0604,-1.0589,-1.0595,-1.0593,-1.0594,-1.0548,-1.0556,-1.0553,-1.0576,-1.0575,-1.0574,-1.0552,0,-1.1121,-1.1055,-1.1019,-1.0968,-1.0931,-1.0898,-1.0866,-1.0826,-1.0795,-1.0759,-1.0725,-1.0685,-1.0674,-1.0655,-1.0633,-1.0596,-1.0579,-1.0597,-1.0545,-1.0543,-1.0558,-1.0549,-1.0557,-1.0538,-1.0548,-1.0548,-1.0547,0,-1.1093,-1.1052,-1.0997,-1.0941,-1.0924,-1.0897,-1.0848,-1.0815,-1.0768,-1.0747,-1.0713,-1.0687,-1.0647,-1.0644,-1.0588,-1.0601,-1.0577,-1.0556,-1.0554,-1.0547,-1.0545,-1.0541,-1.0531,-1.0528,-1.0542,-1.0542,-1.0543,0,-1.1108,-1.1038,-1.0996,-1.0974,-1.0907,-1.0888,-1.086,-1.0813,-1.0786,-1.0743,-1.0725,-1.0678,-1.0653,-1.0617,-1.0579,-1.058,-1.0526,-1.052,-1.0507,-1.0508,-1.0496,-1.0497,-1.0482,-1.0483,-1.0483,-1.0483,-1.0483,0,-1.1093,-1.1061,-1.1002,-1.0976,-1.0939,-1.0897,-1.0861,-1.083,-1.0789,-1.0756,-1.0724,-1.0694,-1.0645,-1.0608,-1.0578,-1.0535,-1.0524,-1.0506,-1.0498,-1.0508,-1.051,-1.0491,-1.0491,-1.0482,-1.0482,-1.0482,-1.0482,0,-1.1103,-1.1062,-1.1014,-1.0955,-1.0939,-1.0914,-1.0863,-1.0836,-1.0804,-1.0763,-1.0751,-1.07,-1.0655,-1.0613,-1.0553,-1.0533,-1.049,-1.048,-1.0506,-1.0501,-1.049,-1.0491,-1.0461,-1.0455,-1.0461,-1.0461,-1.0461,0,-1.1096,-1.1071,-1.1008,-1.0984,-1.0956,-1.0917,-1.0889,-1.0847,-1.0819,-1.0763,-1.0743,-1.0696,-1.0656,-1.0586,-1.0543,-1.0497,-1.0486,-1.0478,-1.0479,-1.0489,-1.0484,-1.0486,-1.0483,-1.0479,-1.0479,-1.0479,-1.0479,0,-1.1088,-1.1069,-1.103,-1.0983,-1.095,-1.0911,-1.0871,-1.0853,-1.0803,-1.0773,-1.0727,-1.0696,-1.0635,-1.0588,-1.0537,-1.0507,-1.0485,-1.048,-1.0474,-1.0484,-1.0499,-1.049,-1.0507,-1.048,-1.048,-1.048,-1.048,-1.048,-1.1089,-1.1064,-1.1016,-1.0973,-1.0938,-1.0902,-1.0873,-1.0838,-1.0798,-1.0745,-1.0723,-1.0676,-1.0629,-1.0558,-1.0528,-1.0491,-1.0486,-1.0478,-1.0475,-1.0474,-1.0475,-1.0506,-1.0481,-1.0481,-1.0481,-1.0481,-1.0481,0,-1.1078,-1.1046,-1.1006,-1.0951,-1.0917,-1.09,-1.0854,-1.0827,-1.0786,-1.0744,-1.0705,-1.0652,-1.0606,-1.056,-1.0512,-1.0491,-1.0479,-1.0479,-1.048,-1.0473,-1.0483,-1.0492,-1.0489,-1.0489,-1.0489,-1.0489,-1.0489,-1.0489,-1.1069,-1.1026,-1.1001,-1.094,-1.0907,-1.0861,-1.0837,-1.0803,-1.0769,-1.0711,-1.0673,-1.0643,-1.0599,-1.0547,-1.0504,-1.0492,-1.0475,-1.0478,-1.0463,-1.0473,-1.0472,-1.0472,-1.0481,-1.0475,-1.0475,-1.0455,-1.0455,-1.0455]},{"header":{"parameterUnit":"m.s-1","parameterCategory":1,"la1":30.2991,"la2":30.254,"lo1":-89.0895,"lo2":-89.0444,"dy":0.0017,"dx":0.0017,"nx":28,"ny":28,"refTime":"2024-04-17T21:00:00:Z","depth":0,"parameterNumber":3,"parameterNumberName":"V-component_of_WINDS"},"data":[0,0,0,0,0,0,0,0,0,0,0,0,0,0,0,0,0,0,0,0,0,0,0,0,0,0,0,0,0,0,0,0,0,0,0,0,0,0,0,0,0,0,0,0,0,0,0,0,0,0,0,0,0,0,0,0,0,0,3.8477,3.8477,0,3.85,3.85,3.85,3.8449,3.8447,3.8445,3.8444,3.8463,3.8465,3.8467,0,0,0,0,0,0,0,0,0,0,0,0,0,3.8385,3.8387,3.8477,3.8477,3.8477,3.85,3.85,3.85,3.8449,3.8447,3.8445,3.8443,3.8462,3.8465,3.8467,0,0,0,0,0,0,0,0,0,0,0,0,0,3.8418,3.8388,3.8477,3.8455,3.8453,3.85,3.85,3.85,3.8449,3.8447,3.8444,3.8442,3.8461,3.8464,3.8467,3.8536,0,0,3.8477,3.8478,0,0,0,0,0,0,0,0,3.8416,3.8422,3.8458,3.8456,3.8454,3.8469,3.8475,3.8512,3.845,3.845,3.8444,3.8441,3.8467,3.8469,3.8479,3.8536,3.8537,3.8477,3.8479,3.848,3.8481,0,0,0,0,0,0,0,3.8414,3.842,3.8486,3.8458,3.8456,3.8442,3.8444,3.8481,3.8472,3.845,3.8447,3.845,3.8465,3.8476,3.8479,3.8538,3.8477,3.848,3.8482,3.8483,3.8654,3.8656,0,0,0,0,0,0,3.8415,3.8419,3.8485,3.8486,3.8429,3.8446,3.8448,3.8467,3.8471,3.847,3.8452,3.8448,3.8472,3.8475,3.8479,3.8561,3.848,3.8483,3.8485,3.8651,3.8654,3.8657,0,0,0,0,0,0,3.8414,3.8422,3.8484,3.8452,3.8459,3.845,3.8471,3.8468,3.8479,3.8473,3.8471,3.8465,3.847,3.8475,3.8523,3.856,3.8484,3.8487,3.8648,3.8652,3.8656,3.8723,0,0,0,0,0,0,3.8411,3.8421,3.8448,3.8453,3.8461,3.8528,3.8474,3.8471,3.8485,3.8479,3.8484,3.8483,3.8468,3.8518,3.8526,3.8563,3.849,3.8644,3.865,3.8654,3.8718,3.8729,3.8739,0,0,0,0,0,3.8408,3.8465,3.845,3.8458,3.8494,3.8531,3.8535,3.8518,3.8488,3.8514,3.8511,3.8483,3.8555,3.8524,3.8531,3.8571,3.8642,3.8648,3.8654,3.8713,3.8727,3.8739,0,0,0,0,0,0,3.8463,3.8465,3.8448,3.8508,3.852,3.8522,3.8554,3.8533,3.8553,3.8546,3.8523,3.8525,3.8577,3.8578,3.8543,3.8637,3.8593,3.8601,3.8635,3.8648,3.8659,3.8658,3.8492,0,0,0,0,0,3.8482,3.8513,3.8513,3.8566,3.8573,3.8563,3.8578,3.8565,3.8575,3.8579,3.8579,3.8589,3.8614,3.8631,3.8653,3.8717,3.8718,3.8748,3.8758,3.8767,3.8775,3.881,3.8823,3.8677,3.8677,3.8677,0,0,3.8522,3.8527,3.8548,3.8577,3.8585,3.8617,3.8567,3.8602,3.8626,3.8584,3.863,3.863,3.864,3.8696,3.8721,3.8699,3.8815,3.8775,3.8782,3.8785,3.8817,3.8831,3.8844,3.8681,3.868,3.868,0,0,3.8611,3.8618,3.8664,3.8673,3.8686,3.8679,3.869,3.8695,3.8694,3.874,3.871,3.8737,3.878,3.8789,3.8799,3.8893,3.8868,3.89,3.8957,3.8991,3.9003,3.9013,3.9048,3.906,3.8908,3.8908,3.8908,0,3.8659,3.8707,3.869,3.8728,3.8742,3.8708,3.8754,3.8762,3.8781,3.8791,3.8766,3.8821,3.8825,3.8884,3.8907,3.8916,3.8928,3.89,3.9003,3.9013,3.9022,3.9055,3.9068,3.8912,3.8911,3.8911,3.8911,0,3.8766,3.88,3.8835,3.8857,3.8874,3.8916,3.8904,3.8924,3.8909,3.8905,3.8952,3.8956,3.8979,3.8992,3.8976,3.9049,3.9035,3.9007,3.8962,3.904,3.9071,3.9083,3.8917,3.8916,3.8915,3.8914,0,0,3.8891,3.8903,3.8916,3.8926,3.8938,3.8963,3.9004,3.9028,3.9046,3.906,3.9094,3.9132,3.9106,3.9118,3.9103,3.9133,3.9209,3.9101,3.9101,3.9122,3.929,3.9313,3.9328,3.9192,3.9194,3.9196,3.929,0,3.898,3.9052,3.9038,3.9107,3.9139,3.9107,3.9142,3.9152,3.9149,3.9175,3.917,3.9199,3.9162,3.9169,3.9197,3.9194,3.9243,3.9186,3.9223,3.9225,3.9224,3.9343,3.9367,3.9455,3.9302,3.9304,3.9305,0,3.9095,3.9116,3.919,3.9198,3.9211,3.9243,3.9265,3.9289,3.9301,3.9296,3.931,3.929,3.9329,3.9283,3.9337,3.93,3.9314,3.9314,3.9317,3.9321,3.9271,3.9352,3.9483,3.9497,3.9323,3.9322,3.9321,0,3.9181,3.9227,3.9277,3.9287,3.9297,3.9321,3.9326,3.9334,3.9351,3.9369,3.938,3.9402,3.9414,3.9432,3.9418,3.9386,3.9475,3.9427,3.9472,3.9473,3.9493,3.9493,3.963,3.95,3.95,3.95,3.9499,0,3.9284,3.933,3.9317,3.9348,3.9399,3.9381,3.9432,3.9433,3.9442,3.9472,3.9444,3.9472,3.9452,3.9478,3.9467,3.9515,3.952,3.9517,3.9514,3.9521,3.9522,3.9531,3.9525,3.9503,3.9502,3.9502,3.9501,0,3.9389,3.9381,3.9434,3.9441,3.9443,3.9481,3.9485,3.9514,3.9509,3.9548,3.9556,3.9548,3.9578,3.9566,3.9597,3.9589,3.9651,3.9638,3.9648,3.9645,3.9691,3.9688,3.9841,3.9861,3.9716,3.9718,3.9719,0,3.9455,3.9491,3.9502,3.9521,3.9529,3.956,3.9577,3.9561,3.9579,3.9596,3.9622,3.965,3.9672,3.9722,3.9718,3.9742,3.9731,3.9783,3.9734,3.974,3.9734,3.9732,3.9736,3.9793,3.9795,3.9796,3.9797,0,3.9576,3.9571,3.9597,3.9624,3.9645,3.9664,3.9681,3.9697,3.9682,3.9704,3.9736,3.9753,3.9786,3.9814,3.9836,3.9839,3.9816,3.9812,3.9824,3.9832,3.9837,3.9837,3.9676,3.9809,3.9808,3.9807,3.9806,3.9806,3.9665,3.9696,3.9709,3.974,3.9751,3.9767,3.9795,3.9795,3.9821,3.9848,3.9836,3.9873,3.9883,3.991,3.9917,3.9945,3.9925,3.9942,3.9946,3.9951,3.9958,3.9832,3.9949,3.9948,3.9948,3.9948,3.9947,0,3.9785,3.9792,3.9821,3.9846,3.9871,3.9848,3.9865,3.9886,3.992,3.9932,3.9955,3.9992,4.0019,4.0018,4.0044,4.0066,4.0056,4.0073,4.0072,4.0074,3.9974,3.9962,4.0081,4.0081,4.0081,4.0081,4.0081,4.0081,3.985,3.9902,3.9899,3.9956,3.9962,4.0,4.0012,4.0026,4.0037,4.008,4.0103,4.0103,4.011,4.0136,4.016,4.0159,4.017,4.0192,4.0187,4.0094,4.0081,4.0068,4.0057,4.0194,4.0194,4.0284,4.0285,4.0286]}]]